Weather History for Mexico City Airport, Mexico

Change the Weather History Date:

Wednesday, January 26, 2011

  Actual Average Record
Temperature  
Mean Temperature 56 °F -  
Max Temperature 73 °F 71 °F 78 °F (2009)
Min Temperature 39 °F 43 °F 37 °F (1998)
Degree Days  
Heating Degree Days 9    
Growing Degree Days 6 (Base 50)    
Moisture  
Dew Point 35 °F    
Average Humidity 52    
Maximum Humidity 93    
Minimum Humidity 19    
Precipitation  
Precipitation 0.00 in - - ()
Sea Level Pressure  
Sea Level Pressure 30.16 in    
Wind  
Wind Speed 4 mph ()    
Max Wind Speed 9 mph    
Max Gust Speed 21 mph    
Visibility 6.2 miles    
Events      
Averages and records for this station are not official NWS values.
T = Trace of Precipitation, MM = Missing Value Source: Averaged Metar Reports

Daily Weather History Graph

Daily Weather History Graph

Search for Another Location

Airport:

Trip Planner

Search our weather history database for the weather conditions in past years. The results will help you decide how hot, cold, wet, or windy it might be!

Date:

Astronomy

Jan. 26, 2011 Rise Set
Actual Time 7:12 AM CST 6:25 PM CST
Civil Twilight 6:49 AM CST 6:48 PM CST
Nautical Twilight 6:22 AM CST 7:15 PM CST
Astronomical Twilight 5:56 AM CST 7:41 PM CST
Moon 12:35 AM CST 12:07 PM CST
Length of Visible Light 11h 59m
Length of Day
11h 12m
Waning Gibbous, 48% of the Moon is Illuminated
Jan 26
Waning Gibbous
Feb 2
New
Feb 11
First Quarter
Feb 18
Full
Feb 24
Last Quarter

Hourly Weather History & Observations

Time (CST) Temp. Windchill Dew Point Humidity Pressure Visibility Wind Dir Wind Speed Gust Speed Precip Events Conditions
12:45 AM 53.6 °F - 32.0 °F 44% 30.23 in 12.0 mi Calm Calm - N/A   Clear
1:45 AM 50.0 °F - 32.0 °F 50% 30.23 in 10.0 mi NNE 3.5 mph - N/A   Clear
2:45 AM 44.6 °F 42.2 °F 35.6 °F 71% 29.86 in 7.0 mi NE 4.6 mph - N/A   Clear
3:44 AM 42.8 °F 40.1 °F 37.4 °F 81% 30.23 in 7.0 mi NE 4.6 mph - N/A   Clear
4:45 AM 41.0 °F 39.0 °F 37.4 °F 87% 30.23 in 6.0 mi NNE 3.5 mph - N/A   Clear
5:45 AM 41.0 °F 38.0 °F 39.2 °F 93% 29.87 in 4.0 mi ENE 4.6 mph - N/A   Clear
6:20 AM 39.2 °F - 37.4 °F 93% 30.25 in 4.0 mi Calm Calm - N/A   Clear
6:45 AM 41.0 °F 39.0 °F 37.4 °F 87% 30.26 in 4.0 mi NE 3.5 mph - N/A   Clear
7:22 AM 39.2 °F 35.9 °F 37.4 °F 93% 30.27 in 6.0 mi NE 4.6 mph - N/A   Clear
7:45 AM 41.0 °F 37.1 °F 37.4 °F 87% 30.28 in 6.0 mi NE 5.8 mph - N/A   Clear
8:23 AM 42.8 °F 38.6 °F 39.2 °F 87% 30.29 in 4.0 mi NNE 6.9 mph - N/A   Clear
8:32 AM 42.8 °F 39.3 °F 39.2 °F 87% 30.29 in 2.0 mi NNE 5.8 mph - N/A   Clear
8:45 AM 42.8 °F 38.6 °F 39.2 °F 87% 29.99 in 2.0 mi NNE 6.9 mph - N/A   Clear
9:15 AM 46.4 °F 43.5 °F 41.0 °F 81% 30.30 in 2.0 mi NE 5.8 mph - N/A   Clear
9:23 AM 48.2 °F - 41.0 °F 76% 30.30 in 2.0 mi NE 5.8 mph - N/A   Clear
9:40 AM 51.8 °F - 41.0 °F 67% 30.30 in 3.0 mi ENE 4.6 mph - N/A   Haze
10:11 AM 55.4 °F - 37.4 °F 51% 30.30 in 4.0 mi NE 3.5 mph - N/A   Clear
10:32 AM 59.0 °F - 37.4 °F 45% 30.30 in 4.0 mi ESE 3.5 mph - N/A   Scattered Clouds
10:50 AM 62.6 °F - 35.6 °F 37% 30.30 in 4.0 mi North 3.5 mph - N/A   Scattered Clouds
11:41 AM 66.2 °F - 35.6 °F 32% 29.83 in 6.0 mi ESE 4.6 mph - N/A   Scattered Clouds
12:29 PM 69.8 °F - 33.8 °F 27% 30.24 in 7.0 mi East 4.6 mph - N/A   Mostly Cloudy
1:03 PM 69.8 °F - 33.8 °F 27% 30.23 in 7.0 mi East 6.9 mph - N/A   Mostly Cloudy
1:50 PM 71.6 °F - 33.8 °F 25% 30.21 in 8.0 mi South 9.2 mph - N/A   Mostly Cloudy
2:49 PM 73.4 °F - 28.4 °F 19% 29.76 in 8.0 mi South 8.1 mph - N/A   Mostly Cloudy
3:46 PM 73.4 °F - 30.2 °F 20% 30.14 in 8.0 mi East 9.2 mph - N/A   Mostly Cloudy
3:54 PM 73.4 °F - 30.2 °F 20% 30.14 in 8.0 mi East 9.2 mph - N/A   Mostly Cloudy
4:47 PM 71.6 °F - 30.2 °F 22% 30.14 in 8.0 mi WSW 4.6 mph - N/A   Mostly Cloudy
5:45 PM 68.0 °F - 32.0 °F 26% 30.16 in 7.0 mi ENE 9.2 mph 20.7 mph N/A   Mostly Cloudy
5:47 PM 68.0 °F - 32.0 °F 26% 29.84 in 7.0 mi ENE 9.2 mph 20.7 mph N/A   Mostly Cloudy
6:43 PM 66.2 °F - 32.0 °F 28% 30.18 in 7.0 mi WSW 8.1 mph - N/A   Mostly Cloudy
7:37 PM 62.6 °F - 32.0 °F 32% 30.21 in 7.0 mi ESE 9.2 mph - N/A   Mostly Cloudy
7:44 PM 62.6 °F - 32.0 °F 32% 30.21 in 7.0 mi ESE 5.8 mph - N/A   Mostly Cloudy
8:44 PM 60.8 °F - 32.0 °F 34% 29.92 in 8.0 mi ESE 3.5 mph - N/A   Mostly Cloudy
9:44 PM 59.0 °F - 32.0 °F 36% 30.25 in 8.0 mi East 8.1 mph - N/A   Mostly Cloudy
10:47 PM 57.2 °F - 32.0 °F 38% 30.27 in 10.0 mi ESE 4.6 mph - N/A   Partly Cloudy
11:46 PM 57.2 °F - 32.0 °F 38% 29.83 in 10.0 mi ESE 4.6 mph - N/A   Clear